When you browse on this site, cookies collect data to enhance your experience and personalize the content and advertising you see.
Visit our Privacy Policy to learn more. By continuing to use the site, you agree to this use of cookies and data.
  • In Hungary
  • List of Countries
  • For 7 days
  • Water Temperature
  • Satellite Maps
  • Weather Map
  • News
  • Weather Widgets
  • user-avatar
    Login

    Hourly Weather Ostrzyce

    Today, 10 December, Monday

    Time Temperature Precipitation Wind Pressure Humidity
    00:00 +5°C° 0.3 mm 8 mps 744 mmHg 75%
    01:00 +4°C° 0 mm 7 mps 744 mmHg 74%
    02:00 +4°C° 0.2 mm 7 mps 745 mmHg 74%
    03:00 +4°C° 0.2 mm 7 mps 746 mmHg 73%
    04:00 +2°C° 0.2 mm 8 mps 746 mmHg 73%
    05:00 +3°C° 0.1 mm 7 mps 747 mmHg 73%
    06:00 +3°C° 0.1 mm 7 mps 748 mmHg 74%
    07:00 +2°C° 0 mm 6 mps 749 mmHg 75%
    08:00 +2°C° 0 mm 7 mps 749 mmHg 74%
    09:00 +3°C° 0 mm 7 mps 750 mmHg 74%
    10:00 +3°C° 0 mm 7 mps 750 mmHg 73%
    11:00 +3°C° 0.2 mm 7 mps 750 mmHg 71%
    12:00 +2°C° 0.2 mm 8 mps 751 mmHg 70%
    13:00 +2°C° 0.2 mm 8 mps 751 mmHg 68%
    14:00 +3°C° 0.1 mm 7 mps 751 mmHg 69%
    15:00 +3°C° 0.1 mm 6 mps 751 mmHg 69%
    16:00 +2°C° 0.1 mm 5 mps 751 mmHg 70%
    17:00 +2°C° 0 mm 5 mps 751 mmHg 71%
    18:00 +2°C° 0 mm 5 mps 751 mmHg 72%
    19:00 +2°C° 0 mm 5 mps 751 mmHg 73%
    20:00 +1°C° 0.1 mm 5 mps 751 mmHg 75%
    21:00 +1°C° 0.1 mm 5 mps 751 mmHg 76%
    22:00 +1°C° 0.1 mm 5 mps 751 mmHg 78%
    23:00 +1°C° 0.1 mm 5 mps 751 mmHg 79%

    Tomorrow, 11 December, Tuesday

    Time Temperature Precipitation Wind Pressure Humidity
    00:00 +1°C° 0.1 mm 5 mps 751 mmHg 80%
    01:00 +1°C° 0.1 mm 5 mps 751 mmHg 81%
    02:00 +1°C° 0.3 mm 5 mps 751 mmHg 80%
    03:00 +1°C° 0.3 mm 5 mps 750 mmHg 80%
    04:00 +1°C° 0.3 mm 5 mps 750 mmHg 79%
    05:00 +1°C° 0.5 mm 5 mps 750 mmHg 79%
    06:00 +1°C° 0.5 mm 5 mps 750 mmHg 80%
    07:00 +1°C° 0.5 mm 5 mps 750 mmHg 81%
    08:00 +2°C° 0.3 mm 5 mps 750 mmHg 82%
    09:00 +2°C° 0.3 mm 5 mps 751 mmHg 83%
    10:00 +3°C° 0.3 mm 4 mps 751 mmHg 84%
    11:00 +2°C° 0.2 mm 5 mps 751 mmHg 82%
    12:00 +2°C° 0.2 mm 5 mps 752 mmHg 80%
    13:00 +2°C° 0.2 mm 5 mps 752 mmHg 78%
    14:00 +2°C° 0.3 mm 5 mps 752 mmHg 80%
    15:00 +3°C° 0.3 mm 4 mps 753 mmHg 81%
    16:00 +1°C° 0.3 mm 4 mps 753 mmHg 83%
    17:00 +1°C° 0.4 mm 4 mps 754 mmHg 84%
    18:00 +1°C° 0.4 mm 4 mps 754 mmHg 85%
    19:00 +1°C° 0.4 mm 4 mps 755 mmHg 86%
    20:00 +1°C° 0.1 mm 4 mps 755 mmHg 87%
    21:00 +1°C° 0.1 mm 4 mps 756 mmHg 88%
    22:00 +1°C° 0.1 mm 4 mps 756 mmHg 90%
    23:00 +1°C° 0 mm 3 mps 757 mmHg 91%

    Day after tomorrow, 12 December, Wednesday

    Time Temperature Precipitation Wind Pressure Humidity
    00:00 +1°C° 0 mm 3 mps 757 mmHg 91%
    01:00 0°C° 0 mm 3 mps 757 mmHg 92%
    02:00 0°C° 0 mm 3 mps 758 mmHg 93%
    03:00 0°C° 0 mm 3 mps 758 mmHg 93%
    04:00 -1°C° 0 mm 3 mps 758 mmHg 94%
    05:00 -1°C° 0 mm 2 mps 758 mmHg 94%
    06:00 -1°C° 0 mm 2 mps 759 mmHg 94%
    07:00 -1°C° 0 mm 2 mps 759 mmHg 94%
    08:00 -1°C° 0 mm 2 mps 759 mmHg 92%
    09:00 -1°C° 0 mm 2 mps 760 mmHg 90%
    10:00 +1°C° 0 mm 2 mps 760 mmHg 88%
    11:00 +1°C° 0 mm 2 mps 760 mmHg 85%
    12:00 +2°C° 0 mm 2 mps 760 mmHg 82%
    13:00 +3°C° 0 mm 1 mps 760 mmHg 79%
    14:00 +2°C° 0 mm 1 mps 760 mmHg 83%
    15:00 +2°C° 0 mm 1 mps 760 mmHg 86%
    16:00 +1°C° 0 mm 1 mps 760 mmHg 89%
    17:00 +1°C° 0 mm 1 mps 760 mmHg 90%
    18:00 +1°C° 0 mm 1 mps 761 mmHg 91%
    19:00 0°C° 0 mm 1 mps 761 mmHg 91%
    20:00 -1°C° 0 mm 0 mps 761 mmHg 91%
    21:00 -1°C° 0 mm 0 mps 761 mmHg 91%
    22:00 -1°C° 0 mm 0 mps 761 mmHg 90%
    23:00 -1°C° 0 mm 0 mps 761 mmHg 90%

    13 December, Thursday

    Time Temperature Precipitation Wind Pressure Humidity
    00:00 -1°C° 0 mm 0 mps 761 mmHg 90%
    01:00 -1°C° 0 mm 0 mps 761 mmHg 90%
    02:00 -1°C° 0 mm 0 mps 761 mmHg 90%
    03:00 0°C° 0 mm 1 mps 761 mmHg 91%
    04:00 0°C° 0 mm 1 mps 761 mmHg 91%
    05:00 0°C° 0 mm 1 mps 761 mmHg 91%
    06:00 0°C° 0 mm 1 mps 760 mmHg 91%
    07:00 0°C° 0 mm 1 mps 760 mmHg 92%
    08:00 +1°C° 0 mm 1 mps 760 mmHg 89%
    09:00 +1°C° 0 mm 1 mps 760 mmHg 87%
    10:00 -1°C° 0 mm 2 mps 760 mmHg 84%
    11:00 +1°C° 0 mm 2 mps 760 mmHg 82%
    12:00 +1°C° 0 mm 2 mps 760 mmHg 80%
    13:00 +1°C° 0 mm 2 mps 759 mmHg 78%
    14:00 +2°C° 0 mm 1 mps 759 mmHg 80%
    15:00 +2°C° 0 mm 1 mps 759 mmHg 82%
    16:00 +2°C° 0 mm 1 mps 759 mmHg 84%
    17:00 +2°C° 0 mm 1 mps 759 mmHg 84%
    18:00 +1°C° 0 mm 1 mps 759 mmHg 85%
    19:00 +1°C° 0 mm 1 mps 760 mmHg 85%
    20:00 +1°C° 0 mm 1 mps 760 mmHg 85%
    21:00 +1°C° 0 mm 1 mps 760 mmHg 85%
    22:00 +1°C° 0 mm 1 mps 760 mmHg 85%
    23:00 0°C° 0 mm 1 mps 760 mmHg 86%

    14 December, Friday

    Time Temperature Precipitation Wind Pressure Humidity
    00:00 0°C° 0 mm 1 mps 760 mmHg 88%
    01:00 0°C° 0 mm 1 mps 760 mmHg 89%
    02:00 -1°C° 0 mm 1 mps 761 mmHg 90%
    03:00 -1°C° 0 mm 1 mps 761 mmHg 90%
    04:00 -1°C° 0 mm 1 mps 761 mmHg 91%
    05:00 -1°C° 0 mm 1 mps 761 mmHg 91%
    06:00 -1°C° 0 mm 1 mps 762 mmHg 91%
    07:00 -1°C° 0 mm 1 mps 762 mmHg 91%
    08:00 0°C° 0 mm 1 mps 762 mmHg 90%
    09:00 0°C° 0 mm 1 mps 763 mmHg 88%
    10:00 -1°C° 0 mm 2 mps 764 mmHg 86%
    11:00 -1°C° 0 mm 2 mps 764 mmHg 84%
    12:00 -1°C° 0 mm 2 mps 764 mmHg 82%
    13:00 +1°C° 0 mm 2 mps 764 mmHg 80%
    14:00 -1°C° 0 mm 2 mps 764 mmHg 84%
    15:00 -1°C° 0 mm 2 mps 765 mmHg 88%
    16:00 -2°C° 0 mm 2 mps 765 mmHg 92%
    17:00 -2°C° 0 mm 2 mps 765 mmHg 92%
    18:00 -2°C° 0 mm 2 mps 766 mmHg 93%
    19:00 -2°C° 0 mm 2 mps 766 mmHg 93%
    20:00 -2°C° 0 mm 2 mps 766 mmHg 92%
    21:00 -2°C° 0 mm 2 mps 766 mmHg 92%
    22:00 -2°C° 0 mm 2 mps 767 mmHg 91%
    23:00 -2°C° 0 mm 2 mps 767 mmHg 91%

    15 December, Saturday

    Time Temperature Precipitation Wind Pressure Humidity
    00:00 -2°C° 0 mm 2 mps 767 mmHg 90%
    01:00 -2°C° 0 mm 2 mps 767 mmHg 89%
    02:00 -2°C° 0 mm 2 mps 768 mmHg 89%
    03:00 -2°C° 0 mm 2 mps 768 mmHg 89%
    04:00 -2°C° 0 mm 2 mps 768 mmHg 89%
    05:00 -2°C° 0 mm 2 mps 768 mmHg 89%
    06:00 -2°C° 0 mm 2 mps 768 mmHg 88%
    07:00 -2°C° 0 mm 2 mps 768 mmHg 88%
    08:00 -2°C° 0 mm 2 mps 769 mmHg 85%
    09:00 -2°C° 0 mm 2 mps 769 mmHg 83%
    10:00 -1°C° 0 mm 3 mps 769 mmHg 80%
    11:00 -1°C° 0 mm 3 mps 769 mmHg 78%
    12:00 0°C° 0 mm 3 mps 769 mmHg 77%
    13:00 0°C° 0 mm 3 mps 769 mmHg 75%
    14:00 -1°C° 0 mm 3 mps 769 mmHg 79%
    15:00 -1°C° 0 mm 2 mps 769 mmHg 83%
    16:00 -2°C° 0 mm 2 mps 769 mmHg 88%
    17:00 -2°C° 0 mm 2 mps 769 mmHg 88%
    18:00 -2°C° 0 mm 3 mps 769 mmHg 88%
    19:00 -2°C° 0 mm 3 mps 769 mmHg 88%
    20:00 -4°C° 0 mm 3 mps 769 mmHg 88%
    21:00 -4°C° 0 mm 3 mps 769 mmHg 87%
    22:00 -4°C° 0 mm 3 mps 769 mmHg 87%
    23:00 -4°C° 0 mm 3 mps 769 mmHg 86%
    Show more